This is the latest recevied weather packets stored in our database for station/object LU1MQF-10. If no packets are shown the sender has not sent any weather packets the latest 10 day(s).
| Time | Temp. | Humidity | Pressure | Rain* | Wind** | Luminosity | Snow |
|---|---|---|---|---|---|---|---|
| 1777782820 | 19.44° C | 26% | 1024.9 hPa | - | - | - | - |
| 1777782816 | 19.44° C | 26% | 1024.9 hPa | - | - | - | - |
| 1777781920 | 20° C | 27% | 1025.1 hPa | - | - | - | - |
| 1777781916 | 20° C | 27% | 1025.1 hPa | - | - | - | - |
| 1777781020 | 20.56° C | 26% | 1024.9 hPa | - | - | - | - |
| 1777781016 | 20.56° C | 26% | 1024.9 hPa | - | - | - | - |
| 1777780119 | 20.56° C | 25% | 1025.1 hPa | - | - | - | - |
| 1777780115 | 20.56° C | 25% | 1025.1 hPa | - | - | - | - |
| 1777779219 | 22.22° C | 24% | 1025.4 hPa | - | - | - | - |
| 1777779215 | 22.22° C | 24% | 1025.4 hPa | - | - | - | - |
| 1777778319 | 23.33° C | 24% | 1025.8 hPa | - | - | - | - |
| 1777778315 | 23.33° C | 24% | 1025.8 hPa | - | - | - | - |
| 1777777419 | 23.33° C | 23% | 1026.1 hPa | - | - | - | - |
| 1777777415 | 23.33° C | 23% | 1026.1 hPa | - | - | - | - |
| 1777776519 | 23.33° C | 24% | 1026.4 hPa | - | - | - | - |
| 1777776515 | 23.33° C | 24% | 1026.4 hPa | - | - | - | - |
| 1777775619 | 22.22° C | 25% | 1026.6 hPa | - | - | - | - |
| 1777775615 | 22.22° C | 25% | 1026.6 hPa | - | - | - | - |
| 1777774718 | 21.67° C | 25% | 1026.8 hPa | - | - | - | - |
| 1777774714 | 21.67° C | 25% | 1026.8 hPa | - | - | - | - |
| 1777773818 | 20° C | 28% | 1027.1 hPa | - | - | - | - |
| 1777773814 | 20° C | 28% | 1027.1 hPa | - | - | - | - |
| 1777772949 | 20.56° C | 28% | 1027.2 hPa | - | - | - | - |
| 1777772918 | 20.56° C | 28% | 1027.2 hPa | - | - | - | - |
| 1777772018 | 20.56° C | 27% | 1027.3 hPa | - | - | - | - |
* Rain since midnight (hover to see other rain measurements)
** Current wind speed in m/s (hover to see current wind gust speed)